Rijeka, Croatia

11:22 AM CET on December 13, 2018 (GMT +0100)
Rijeka

Weather History for LDRI - October, 2018

Change the Weather History Date:

Friday, October 12, 2018

  Actual Average Record
Temperature  
Mean Temperature 65 °F -  
Max Temperature 77 °F - - ()
Min Temperature 53 °F - - ()
Growing Degree Days 15 (Base 50)    
Moisture  
Dew Point 50 °F    
Average Humidity 62    
Maximum Humidity 94    
Minimum Humidity 36    
Precipitation  
Precipitation 0.00 in - - ()
Sea Level Pressure  
Sea Level Pressure 30.24 in    
Wind  
Wind Speed 3 mph ()    
Max Wind Speed 12 mph    
Max Gust Speed -    
Visibility 6.2 miles    
Events      
T = Trace of Precipitation, MM = Missing Value Source: Averaged Metar Reports

Daily Weather History Graph

Daily Weather History Graph

Search for Another Location

Airport or City:

Astronomy

Oct. 12, 2018 Rise Set
Actual Time 7:13 AM CEST 6:22 PM CEST
Civil Twilight 6:43 AM CEST 6:51 PM CEST
Nautical Twilight 6:09 AM CEST 7:25 PM CEST
Astronomical Twilight 5:35 AM CEST 7:59 PM CEST
Moon 10:37 AM CEST (10/12) 8:38 PM CEST (10/12)
Length of Visible Light 12h 07m
Length of Day
11h 08m
Waxing Crescent, 12% of the Moon is Illuminated
Oct 12
Waxing Crescent
Oct 16
First Quarter
Oct 24
Full
Oct 31
Last Quarter
Nov 7
New

Hourly Weather History & Observations

Time (CEST) Temp. Dew Point Humidity Pressure Visibility Wind Dir Wind Speed Gust Speed Precip Events Conditions
12:00 AM 59.0 °F 51.8 °F 77% 30.18 in - West 2.3 mph - N/A   Clear
12:30 AM 57.2 °F 51.8 °F 82% 30.18 in - Calm Calm - N/A   Clear
1:00 AM 60.8 °F 51.8 °F 72% 30.18 in - Variable 2.3 mph - N/A   Clear
1:30 AM 57.2 °F 51.8 °F 82% 30.18 in - WNW 2.3 mph - N/A   Clear
2:00 AM 57.2 °F 50.0 °F 77% 30.18 in - NNE 2.3 mph - N/A   Clear
2:30 AM 55.4 °F 48.2 °F 77% 30.18 in - Variable 2.3 mph - N/A   Clear
3:00 AM 59.0 °F 53.6 °F 82% 30.18 in - WSW 3.5 mph - N/A   Clear
3:30 AM 53.6 °F 50.0 °F 88% 30.18 in - Calm Calm - N/A   Clear
4:00 AM 55.4 °F 53.6 °F 94% 30.21 in - West 2.3 mph - N/A   Clear
4:30 AM 55.4 °F 53.6 °F 94% 30.18 in - Variable 2.3 mph - N/A   Clear
5:00 AM 53.6 °F 51.8 °F 94% 30.21 in - Calm Calm - N/A   Clear
5:30 AM 55.4 °F 51.8 °F 88% 30.21 in - Variable 2.3 mph - N/A   Clear
6:00 AM 53.6 °F 51.8 °F 94% 30.21 in - Variable 2.3 mph - N/A   Clear
6:30 AM 55.4 °F 53.6 °F 94% 30.21 in - Variable 2.3 mph - N/A   Clear
7:00 AM 53.6 °F 51.8 °F 94% 30.21 in - Calm Calm - N/A   Clear
7:30 AM 53.6 °F 50.0 °F 88% 30.24 in - Variable 2.3 mph - N/A   Clear
8:00 AM 55.4 °F 51.8 °F 88% 30.24 in - Calm Calm - N/A   Clear
8:30 AM 60.8 °F 53.6 °F 77% 30.24 in - Calm Calm - N/A   Clear
9:00 AM 62.6 °F 55.4 °F 77% 30.24 in - Variable 1.2 mph - N/A   Clear
9:30 AM 64.4 °F 53.6 °F 68% 30.27 in - Variable 2.3 mph - N/A   Clear
10:00 AM 66.2 °F 53.6 °F 64% 30.27 in - West 3.5 mph - N/A   Clear
10:30 AM 64.4 °F 55.4 °F 73% 30.27 in - West 5.8 mph - N/A   Clear
11:00 AM 68.0 °F 48.2 °F 49% 30.27 in - WNW 4.6 mph - N/A   Clear
11:30 AM 69.8 °F 46.4 °F 43% 30.27 in - West 5.8 mph - N/A   Clear
12:00 PM 69.8 °F 50.0 °F 49% 30.27 in - West 4.6 mph - N/A   Clear
12:30 PM 69.8 °F 51.8 °F 53% 30.27 in - SW 3.5 mph - N/A   Clear
1:00 PM 71.6 °F 50.0 °F 46% 30.27 in - Variable 3.5 mph - N/A   Clear
1:30 PM 73.4 °F 51.8 °F 47% 30.24 in - SW 4.6 mph - N/A   Clear
2:00 PM 73.4 °F 50.0 °F 44% 30.24 in - Variable 3.5 mph - N/A   Clear
2:30 PM 75.2 °F 50.0 °F 41% 30.24 in - Variable 3.5 mph - N/A   Clear
3:00 PM 75.2 °F 48.2 °F 38% 30.24 in 6.2 mi NW 4.6 mph - N/A   Partly Cloudy
3:30 PM 75.2 °F 46.4 °F 36% 30.24 in 6.2 mi West 5.8 mph - N/A   Partly Cloudy
4:00 PM 77.0 °F 48.2 °F 36% 30.24 in 6.2 mi NE 5.8 mph - N/A   Partly Cloudy
4:30 PM 75.2 °F 50.0 °F 41% 30.24 in 6.2 mi East 5.8 mph - N/A   Partly Cloudy
5:00 PM 73.4 °F 48.2 °F 41% 30.24 in 6.2 mi East 8.1 mph - N/A   Partly Cloudy
5:30 PM 73.4 °F 46.4 °F 38% 30.24 in 6.2 mi East 3.5 mph - N/A   Partly Cloudy
6:00 PM 71.6 °F 44.6 °F 38% 30.24 in - NE 8.1 mph - N/A   Clear
6:30 PM 69.8 °F 44.6 °F 40% 30.24 in - NNE 11.5 mph - N/A   Clear
7:00 PM 69.8 °F 44.6 °F 40% 30.24 in - NE 11.5 mph - N/A   Clear
7:30 PM 68.0 °F 42.8 °F 40% 30.27 in - East 4.6 mph - N/A   Clear
8:00 PM 68.0 °F 44.6 °F 43% 30.27 in - ENE 6.9 mph - N/A   Clear
8:30 PM 68.0 °F 46.4 °F 46% 30.27 in - ENE 8.1 mph - N/A   Clear
9:00 PM 68.0 °F 46.4 °F 46% 30.27 in - ENE 6.9 mph - N/A   Clear
9:30 PM 68.0 °F 46.4 °F 46% 30.27 in - ENE 6.9 mph - N/A   Clear
10:00 PM 68.0 °F 46.4 °F 46% 30.27 in - ENE 9.2 mph - N/A   Clear
10:30 PM 68.0 °F 48.2 °F 49% 30.27 in - ENE 9.2 mph - N/A   Clear
11:00 PM 66.2 °F 46.4 °F 49% 30.27 in - East 6.9 mph - N/A   Clear
11:30 PM 66.2 °F 46.4 °F 49% 30.27 in - ENE 10.4 mph - N/A   Clear